KE5OYL Weather Reports


Display with metric or nautical units.
time (UTC)temp
F
wind
direction
speed
MPH
gust
MPH
rain 1hr
in
rain 24hr
in
rain mn
in
humidity
%
barometer
mb
20260904223447 97 140 8.0 9.0 0.00 0.00 0.00 44 1011.5
20260904222943 98 36 3.0 7.0 0.00 0.00 0.00 43 1011.8
20260904222439 98 156 4.0 7.0 0.00 0.00 0.00 44 1011.8
20260904221938 98 72 7.0 13.0 0.00 0.00 0.00 45 1011.9
20260904221433 97 84 5.0 10.0 0.00 0.00 0.00 45 1011.8
20260904220929 97 90 3.0 8.0 0.00 0.00 0.00 45 1011.6
20260904220428 98 100 7.0 11.0 0.00 0.00 0.00 45 1011.6
20260904215923 98 66 4.0 7.0 0.00 0.00 0.00 43 1011.6
20260904215418 98 325 3.0 9.0 0.00 0.00 0.00 43 1011.8
20260904214914 97 101 6.0 8.0 0.00 0.00 0.00 45 1012.1
20260904214410 99 135 7.0 8.0 0.00 0.00 0.00 43 1011.9
20260904213909 98 53 5.0 7.0 0.00 0.00 0.00 43 1011.9
20260904213403 99 96 3.0 5.0 0.00 0.00 0.00 42 1012.1
20260904212859 98 224 4.0 6.0 0.00 0.00 0.00 42 1012.0
20260904212359 98 107 3.0 9.0 0.00 0.00 0.00 42 1012.3
20260904211855 98 95 5.0 11.0 0.00 0.00 0.00 43 1012.4
20260904211349 99 126 4.0 8.0 0.00 0.00 0.00 42 1012.3
20260904210844 99 171 6.0 9.0 0.00 0.00 0.00 41 1012.3
20260904210343 99 169 7.0 8.0 0.00 0.00 0.00 40 1012.3
20260904205840 98 69 6.0 11.0 0.00 0.00 0.00 42 1012.5
20260904205336 99 153 4.0 9.0 0.00 0.00 0.00 41 1012.5
20260904204832 99 199 3.0 10.0 0.00 0.00 0.00 41 1012.7
20260904204328 98 199 10.0 13.0 0.00 0.00 0.00 42 1012.4
20260904203824 98 201 5.0 9.0 0.00 0.00 0.00 41 1013.0
20260904203320 98 184 9.0 11.0 0.00 0.00 0.00 41 1012.8
20260904202815 98 207 5.0 10.0 0.00 0.00 0.00 42 1012.8
20260904202312 98 173 5.0 8.0 0.00 0.00 0.00 42 1012.8
20260904201807 98 92 6.0 14.0 0.00 0.00 0.00 42 1012.9
20260904201301 97 355 0.0 5.0 0.00 0.00 0.00 42 1012.9
20260904200756 98 118 9.0 10.0 0.00 0.00 0.00 44 1012.8
20260904200250 97 159 5.0 10.0 0.00 0.00 0.00 44 1013.1
20260904195749 98 152 6.0 8.0 0.00 0.00 0.00 44 1013.2
20260904195248 97 269 3.0 10.0 0.00 0.00 0.00 44 1013.3
20260904194743 97 209 9.0 13.0 0.00 0.00 0.00 44 1013.3
20260904194242 97 175 7.0 9.0 0.00 0.00 0.00 43 1013.5
20260904193738 97 205 9.0 13.0 0.00 0.00 0.00 44 1013.7
20260904193233 96 214 5.0 8.0 0.00 0.00 0.00 44 1013.4
20260904192728 96 257 5.0 8.0 0.00 0.00 0.00 44 1013.7
20260904192224 96 148 6.0 8.0 0.00 0.00 0.00 44 1013.8
20260904191721 96 166 5.0 10.0 0.00 0.00 0.00 44 1013.9
20260904191216 97 194 9.0 11.0 0.00 0.00 0.00 43 1013.8
20260904190713 97 150 6.0 8.0 0.00 0.00 0.00 44 1013.9
20260904190208 96 185 6.0 9.0 0.00 0.00 0.00 44 1013.8
20260904185705 96 188 6.0 7.0 0.00 0.00 0.00 44 1013.9
20260904185159 96 44 4.0 9.0 0.00 0.00 0.00 45 1014.0
20260904184658 96 204 9.0 11.0 0.00 0.00 0.00 46 1014.2
20260904184154 95 142 5.0 7.0 0.00 0.00 0.00 46 1014.1
20260904183649 95 61 3.0 8.0 0.00 0.00 0.00 47 1014.4
20260904183143 95 212 6.0 8.0 0.00 0.00 0.00 46 1014.5
20260904182639 95 16 4.0 14.0 0.00 0.00 0.00 47 1014.4
20260904182133 95 184 5.0 8.0 0.00 0.00 0.00 45 1014.5
20260904181630 95 92 3.0 13.0 0.00 0.00 0.00 46 1014.6
20260904181124 95 155 5.0 13.0 0.00 0.00 0.00 45 1014.5
20260904180619 95 130 8.0 11.0 0.00 0.00 0.00 44 1014.7
20260904180115 95 113 4.0 6.0 0.00 0.00 0.00 46 1014.7
20260904175613 94 268 5.0 11.0 0.00 0.00 0.00 48 1014.9
20260904175112 94 167 4.0 6.0 0.00 0.00 0.00 49 1014.8
20260904174607 92 184 9.0 10.0 0.00 0.00 0.00 51 1015.0
20260904174104 93 222 7.0 9.0 0.00 0.00 0.00 52 1015.1
20260904173604 94 165 5.0 6.0 0.00 0.00 0.00 51 1015.2
20260904173059 93 357 2.0 6.0 0.00 0.00 0.00 53 1015.0
20260904172555 93 88 5.0 9.0 0.00 0.00 0.00 54 1015.4
20260904172054 92 295 3.0 8.0 0.00 0.00 0.00 55 1015.3
20260904171549 90 91 2.0 8.0 0.00 0.00 0.00 58 1015.3
20260904171045 91 246 5.0 9.0 0.00 0.00 0.00 58 1015.4
20260904170540 90 267 3.0 5.0 0.00 0.00 0.00 59 1015.6
20260904170037 92 195 7.0 8.0 0.00 0.00 0.00 58 1015.6
20260904165535 90 14 1.0 1.0 0.00 0.00 0.00 59 1015.5
20260904165035 90 211 6.0 11.0 0.00 0.00 0.00 60 1015.6
20260904164530 89 178 5.0 7.0 0.00 0.00 0.00 61 1015.7
20260904164026 90 231 8.0 10.0 0.00 0.00 0.00 60 1015.8
20260904163525 90 164 4.0 8.0 0.00 0.00 0.00 60 1015.9
20260904163020 89 162 5.0 6.0 0.00 0.00 0.00 62 1015.6
20260904162515 88 230 7.0 10.0 0.00 0.00 0.00 62 1015.6
20260904162011 88 225 6.0 13.0 0.00 0.00 0.00 65 1015.6
20260904161505 88 40 2.0 6.0 0.00 0.00 0.00 64 1015.8
20260904161001 88 202 5.0 7.0 0.00 0.00 0.00 66 1015.4
20260904160455 88 158 4.0 6.0 0.00 0.00 0.00 66 1015.7
20260904155951 87 259 6.0 8.0 0.00 0.00 0.00 67 1015.3
20260904155451 87 177 7.0 9.0 0.00 0.00 0.00 68 1015.8
20260904154949 87 232 6.0 10.0 0.00 0.00 0.00 67 1015.6
20260904154444 86 65 3.0 8.0 0.00 0.00 0.00 70 1015.5
20260904153939 86 214 4.0 6.0 0.00 0.00 0.00 71 1015.5
20260904153434 86 226 11.0 11.0 0.00 0.00 0.00 72 1015.7
20260904152931 86 183 5.0 7.0 0.00 0.00 0.00 72 1015.4
20260904152426 86 189 5.0 6.0 0.00 0.00 0.00 73 1015.5
20260904151925 85 230 5.0 8.0 0.00 0.00 0.00 74 1015.5
20260904151421 84 198 5.0 8.0 0.00 0.00 0.00 76 1015.5
20260904150915 84 130 3.0 8.0 0.00 0.00 0.00 76 1015.6
20260904150411 84 205 4.0 7.0 0.00 0.00 0.00 77 1015.4
20260904145908 84 200 3.0 6.0 0.00 0.00 0.00 78 1015.8
20260904145405 84 195 5.0 7.0 0.00 0.00 0.00 79 1015.7
20260904144900 84 170 5.0 9.0 0.00 0.00 0.00 79 1015.3
20260904144356 83 207 3.0 9.0 0.00 0.00 0.00 81 1015.5
20260904143851 83 51 4.0 7.0 0.00 0.00 0.00 81 1015.6
20260904143348 82 52 2.0 7.0 0.00 0.00 0.00 84 1015.6
20260904142844 82 87 4.0 10.0 0.00 0.00 0.00 84 1015.5
20260904142340 81 195 4.0 7.0 0.00 0.00 0.00 85 1015.4
20260904141839 80 150 7.0 8.0 0.00 0.00 0.00 86 1015.5
20260904141334 81 59 3.0 9.0 0.00 0.00 0.00 86 1015.4
20260904140831 80 191 4.0 6.0 0.00 0.00 0.00 87 1015.7
20260904140326 80 123 3.0 9.0 0.00 0.00 0.00 87 1015.5
20260904135824 80 148 5.0 6.0 0.00 0.00 0.00 88 1015.6
20260904135320 79 105 5.0 7.0 0.00 0.00 0.00 89 1015.5
20260904134816 79 199 5.0 9.0 0.00 0.00 0.00 89 1015.5
20260904134316 79 86 3.0 8.0 0.00 0.00 0.00 89 1015.4
20260904133810 79 114 9.0 11.0 0.00 0.00 0.00 89 1015.5
20260904133306 79 65 3.0 5.0 0.00 0.00 0.00 89 1015.2
20260904132806 79 80 5.0 8.0 0.00 0.00 0.00 89 1015.3
20260904132301 79 75 3.0 6.0 0.00 0.00 0.00 89 1015.2
20260904131800 79 33 1.0 3.0 0.00 0.00 0.00 89 1015.2
20260904131256 78 126 4.0 5.0 0.00 0.00 0.00 89 1015.0
20260904130756 78 83 3.0 5.0 0.00 0.00 0.00 90 1015.0
20260904130255 78 10 0.0 2.0 0.00 0.00 0.00 91 1015.2
20260904125751 77 138 5.0 7.0 0.00 0.00 0.00 91 1014.9
20260904125247 77 162 2.0 5.0 0.00 0.00 0.00 92 1015.3
20260904124741 77 136 4.0 7.0 0.00 0.00 0.00 92 1014.8
20260904124237 77 144 5.0 6.0 0.00 0.00 0.00 92 1014.8
20260904123732 77 159 5.0 7.0 0.00 0.00 0.00 92 1015.0
20260904123227 77 116 5.0 7.0 0.00 0.00 0.00 92 1014.9
20260904122722 76 90 4.0 6.0 0.00 0.00 0.00 92 1014.7
20260904122216 76 77 4.0 7.0 0.00 0.00 0.00 92 1014.9
20260904121712 76 31 2.0 6.0 0.00 0.00 0.00 92 1014.7
20260904121207 76 86 1.0 6.0 0.00 0.00 0.00 92 1014.9
20260904120703 76 65 3.0 6.0 0.00 0.00 0.00 92 1014.7
20260904120159 76 109 3.0 7.0 0.00 0.00 0.00 92 1014.7
20260904115655 76 142 3.0 6.0 0.00 0.00 0.00 91 1014.5
20260904115150 76 79 2.0 7.0 0.00 0.00 0.00 91 1014.7
20260904114644 76 84 2.0 3.0 0.00 0.00 0.00 91 1014.5
20260904114143 76 134 4.0 5.0 0.00 0.00 0.00 91 1014.4
20260904113638 76 104 3.0 6.0 0.00 0.00 0.00 90 1014.6
20260904113137 76 115 3.0 6.0 0.00 0.00 0.00 90 1014.7
20260904112633 76 38 3.0 3.0 0.00 0.00 0.00 90 1014.5
20260904112129 76 24 0.0 3.0 0.00 0.00 0.00 89 1014.2
20260904111624 76 81 4.0 5.0 0.00 0.00 0.00 89 1014.3
20260904111120 77 37 2.0 7.0 0.00 0.00 0.00 89 1014.7
20260904110614 77 126 3.0 6.0 0.00 0.00 0.00 88 1014.4
20260904110109 77 74 3.0 3.0 0.00 0.00 0.00 88 1014.4
20260904105608 77 33 2.0 5.0 0.00 0.00 0.00 88 1014.3
20260904105104 77 66 2.0 3.0 0.00 0.00 0.00 87 1014.5
20260904104559 77 179 4.0 6.0 0.00 0.00 0.00 87 1014.6
20260904104055 77 129 2.0 6.0 0.00 0.00 0.00 87 1014.1
20260904103550 77 72 3.0 5.0 0.00 0.00 0.00 86 1014.3
20260904103046 77 27 2.0 5.0 0.00 0.00 0.00 86 1014.2
20260904102542 77 27 1.0 3.0 0.00 0.00 0.00 86 1014.2
20260904102037 77 25 0.0 3.0 0.00 0.00 0.00 86 1014.2
20260904101534 77 47 2.0 2.0 0.00 0.00 0.00 86 1014.0
20260904101029 77 33 2.0 6.0 0.00 0.00 0.00 86 1014.0
20260904100525 77 45 2.0 3.0 0.00 0.00 0.00 86 1013.7
20260904100020 77 124 3.0 5.0 0.00 0.00 0.00 86 1013.7
20260904095514 77 57 2.0 3.0 0.00 0.00 0.00 86 1013.9
20260904095009 77 151 3.0 3.0 0.00 0.00 0.00 85 1013.7
20260904094504 77 103 2.0 5.0 0.00 0.00 0.00 85 1014.2
20260904094000 77 48 1.0 6.0 0.00 0.00 0.00 85 1013.9
20260904093456 78 45 2.0 3.0 0.00 0.00 0.00 84 1013.8
20260904092951 78 27 1.0 3.0 0.00 0.00 0.00 84 1013.7
20260904092447 78 59 2.0 5.0 0.00 0.00 0.00 84 1013.9
20260904091943 78 48 2.0 3.0 0.00 0.00 0.00 84 1013.9
20260904091439 78 58 1.0 5.0 0.00 0.00 0.00 84 1014.1
20260904090932 78 47 3.0 5.0 0.00 0.00 0.00 84 1014.1
20260904090429 78 92 2.0 3.0 0.00 0.00 0.00 84 1013.9
20260904085923 78 120 3.0 5.0 0.00 0.00 0.00 84 1013.8
20260904085419 78 79 2.0 5.0 0.00 0.00 0.00 84 1013.8
20260904084913 78 132 3.0 6.0 0.00 0.00 0.00 83 1014.0
20260904084410 78 48 1.0 2.0 0.00 0.00 0.00 83 1014.0
20260904083905 78 44 2.0 3.0 0.00 0.00 0.00 83 1014.1
20260904083402 78 83 3.0 6.0 0.00 0.00 0.00 82 1013.9
20260904082857 79 48 3.0 3.0 0.00 0.00 0.00 82 1013.9
20260904082351 79 83 3.0 5.0 0.00 0.00 0.00 82 1013.9
20260904081847 79 41 2.0 5.0 0.00 0.00 0.00 82 1013.7
20260904081342 79 59 3.0 5.0 0.00 0.00 0.00 81 1013.6
20260904080838 80 28 2.0 3.0 0.00 0.00 0.00 81 1013.9
20260904080333 80 42 2.0 2.0 0.00 0.00 0.00 81 1013.9
20260904075829 80 40 2.0 2.0 0.00 0.00 0.00 80 1013.9
20260904075324 80 30 2.0 5.0 0.00 0.00 0.00 80 1013.6
20260904074822 80 100 2.0 6.0 0.00 0.00 0.00 81 1013.6
20260904074317 80 161 4.0 6.0 0.00 0.00 0.00 81 1013.6
20260904073813 80 126 2.0 5.0 0.00 0.00 0.00 80 1013.6
20260904073309 80 28 1.0 2.0 0.00 0.00 0.00 80 1013.8
20260904072805 80 167 3.0 5.0 0.00 0.00 0.00 81 1013.8
20260904072306 80 208 4.0 6.0 0.00 0.00 0.00 80 1013.8
20260904071800 80 232 2.0 5.0 0.00 0.00 0.00 80 1014.0
20260904071255 80 144 2.0 3.0 0.00 0.00 0.00 79 1013.7
20260904070749 80 311 2.0 2.0 0.00 0.00 0.00 79 1013.8
20260904070248 80 154 2.0 5.0 0.00 0.00 0.00 79 1013.9
20260904065743 80 175 2.0 7.0 0.00 0.00 0.00 79 1014.0
20260904065240 80 193 5.0 7.0 0.00 0.00 0.00 78 1014.1
20260904064739 80 207 2.0 5.0 0.00 0.00 0.00 79 1014.1
20260904064235 80 182 5.0 6.0 0.00 0.00 0.00 78 1014.0
20260904063731 80 143 4.0 5.0 0.00 0.00 0.00 78 1014.1
20260904063227 80 103 2.0 5.0 0.00 0.00 0.00 78 1014.0
20260904062723 80 217 2.0 7.0 0.00 0.00 0.00 78 1013.9
20260904062218 80 124 4.0 6.0 0.00 0.00 0.00 77 1013.9
20260904061714 80 127 3.0 3.0 0.00 0.00 0.00 77 1014.0
20260904061210 80 195 3.0 6.0 0.00 0.00 0.00 77 1014.0
20260904060706 81 157 4.0 7.0 0.00 0.00 0.00 77 1014.2
20260904060202 81 116 5.0 7.0 0.00 0.00 0.00 76 1014.2
20260904055656 81 194 5.0 9.0 0.00 0.00 0.00 76 1014.2
20260904055152 81 122 3.0 6.0 0.00 0.00 0.00 76 1014.1
20260904054648 81 156 5.0 6.0 0.00 0.00 0.00 76 1014.1
20260904054143 81 126 2.0 6.0 0.00 0.00 0.00 76 1014.2
20260904053638 80 81 3.0 8.0 0.00 0.00 0.00 76 1014.3
20260904053132 81 176 6.0 8.0 0.00 0.00 0.00 75 1014.1
20260904052629 80 150 4.0 9.0 0.00 0.00 0.00 76 1014.1
20260904052125 81 209 8.0 13.0 0.00 0.00 0.00 76 1013.9
20260904051620 81 163 4.0 9.0 0.00 0.00 0.00 76 1013.8
20260904051115 81 179 5.0 9.0 0.00 0.00 0.00 76 1014.1
20260904050611 81 181 7.0 14.0 0.00 0.00 0.00 76 1014.1
20260904050107 81 146 6.0 8.0 0.00 0.00 0.00 75 1014.0
20260904045601 81 155 6.0 10.0 0.00 0.00 0.00 75 1013.9
20260904045056 81 218 4.0 6.0 0.00 0.00 0.00 75 1014.2
20260904044552 81 179 4.0 7.0 0.00 0.00 0.00 74 1014.0
20260904044048 81 137 3.0 9.0 0.00 0.00 0.00 74 1013.8
20260904043544 81 146 4.0 9.0 0.00 0.00 0.00 73 1013.8
20260904043040 81 179 4.0 9.0 0.00 0.00 0.00 73 1014.1
20260904042536 81 118 6.0 7.0 0.00 0.00 0.00 73 1013.9
20260904042031 81 197 3.0 8.0 0.00 0.00 0.00 72 1014.2
20260904041527 81 174 4.0 8.0 0.00 0.00 0.00 72 1013.8
20260904041023 81 102 3.0 7.0 0.00 0.00 0.00 72 1014.1
20260904040522 81 184 8.0 10.0 0.00 0.00 0.00 72 1014.2
20260904040019 81 124 5.0 9.0 0.00 0.00 0.00 71 1014.0
20260904035514 82 202 5.0 7.0 0.00 0.00 0.00 71 1014.1
20260904035013 81 186 5.0 10.0 0.00 0.00 0.00 71 1014.2
20260904034508 81 96 7.0 9.0 0.00 0.00 0.00 70 1014.2
20260904034004 81 176 5.0 9.0 0.00 0.00 0.00 70 1014.3
20260904033500 82 96 3.0 6.0 0.00 0.00 0.00 69 1014.0
20260904032956 82 120 3.0 9.0 0.00 0.00 0.00 69 1014.1
20260904032451 82 67 3.0 7.0 0.00 0.00 0.00 68 1014.4
20260904031950 82 171 3.0 9.0 0.00 0.00 0.00 68 1014.3
20260904031445 82 101 3.0 6.0 0.00 0.00 0.00 66 1014.1
20260904030942 82 144 2.0 7.0 0.00 0.00 0.00 66 1014.1
20260904030437 82 86 2.0 3.0 0.00 0.00 0.00 66 1014.1
20260904025932 82 89 3.0 8.0 0.00 0.00 0.00 67 1013.9
20260904025428 82 81 5.0 8.0 0.00 0.00 0.00 67 1013.9
20260904024922 82 124 6.0 9.0 0.00 0.00 0.00 67 1013.8
20260904024418 82 124 6.0 10.0 0.00 0.00 0.00 68 1013.7
20260904023913 82 68 3.0 6.0 0.00 0.00 0.00 69 1013.8
20260904023410 83 80 2.0 8.0 0.00 0.00 0.00 69 1013.4
20260904022908 83 161 5.0 8.0 0.00 0.00 0.00 69 1013.8
20260904022405 83 132 3.0 7.0 0.00 0.00 0.00 69 1013.5
20260904021902 83 71 3.0 3.0 0.00 0.00 0.00 68 1013.2
20260904021357 83 150 7.0 9.0 0.00 0.00 0.00 68 1013.3
20260904020852 83 118 5.0 8.0 0.00 0.00 0.00 68 1013.2
20260904020347 83 215 5.0 11.0 0.00 0.00 0.00 68 1013.1
20260904015846 84 40 2.0 14.0 0.00 0.00 0.00 69 1013.1
20260904015342 84 173 4.0 9.0 0.00 0.00 0.00 69 1013.0
20260904014840 84 87 4.0 7.0 0.00 0.00 0.00 69 1012.9
20260904014335 84 109 3.0 7.0 0.00 0.00 0.00 69 1013.0
20260904013831 84 99 4.0 11.0 0.00 0.00 0.00 69 1012.9
20260904013327 84 102 10.0 13.0 0.00 0.00 0.00 69 1013.0
20260904012823 84 116 6.0 9.0 0.00 0.00 0.00 69 1012.9
20260904012323 84 113 5.0 8.0 0.00 0.00 0.00 69 1012.8
20260904011822 84 155 9.0 14.0 0.00 0.00 0.00 69 1012.7
20260904011317 85 161 3.0 8.0 0.00 0.00 0.00 68 1012.5
20260904010811 85 71 3.0 8.0 0.00 0.00 0.00 68 1012.4
20260904010309 85 107 7.0 11.0 0.00 0.00 0.00 68 1012.6
20260904005803 85 30 3.0 9.0 0.00 0.00 0.00 68 1012.5
20260904005259 85 137 5.0 7.0 0.00 0.00 0.00 67 1012.5
20260904004754 85 168 6.0 10.0 0.00 0.00 0.00 67 1012.6
20260904004250 86 117 8.0 10.0 0.00 0.00 0.00 65 1012.7
20260904003744 86 136 4.0 15.0 0.00 0.00 0.00 65 1012.5
20260904003241 86 127 6.0 15.0 0.00 0.00 0.00 65 1012.6
20260904002736 87 88 6.0 11.0 0.00 0.00 0.00 64 1012.6
20260904002233 87 122 7.0 14.0 0.00 0.00 0.00 63 1012.4
20260904001732 87 126 5.0 7.0 0.00 0.00 0.00 62 1012.4
20260904001226 87 124 5.0 16.0 0.00 0.00 0.00 62 1012.4
20260904000721 88 112 6.0 9.0 0.00 0.00 0.00 61 1012.2
20260904000218 88 13 3.0 10.0 0.00 0.00 0.00 59 1012.4
20260903235715 88 110 5.0 11.0 0.00 0.00 0.00 59 1012.3
20260903235212 89 135 7.0 10.0 0.00 0.00 0.00 58 1012.0
20260903234706 89 171 6.0 9.0 0.00 0.00 0.00 57 1012.0
20260903234203 89 110 7.0 11.0 0.00 0.00 0.00 57 1011.9
20260903233658 89 105 7.0 11.0 0.00 0.00 0.00 57 1011.9
20260903233154 89 112 7.0 11.0 0.00 0.00 0.00 57 1012.0
20260903232647 90 105 5.0 11.0 0.00 0.00 0.00 57 1011.8
20260903232144 90 88 4.0 8.0 0.00 0.00 0.00 57 1012.0
20260903231643 90 138 6.0 11.0 0.00 0.00 0.00 57 1011.9
20260903231137 90 156 5.0 13.0 0.00 0.00 0.00 57 1012.0
20260903230633 90 64 4.0 14.0 0.00 0.00 0.00 58 1011.9
20260903230132 90 15 3.0 9.0 0.00 0.00 0.00 57 1011.9
20260903225629 90 202 5.0 14.0 0.00 0.00 0.00 58 1011.8
20260903225125 89 160 4.0 9.0 0.00 0.00 0.00 59 1011.8
20260903224621 90 87 7.0 8.0 0.00 0.00 0.00 58 1012.0
20260903224118 90 97 7.0 11.0 0.00 0.00 0.00 57 1011.8